Hourly Data Report for October 22, 2016

All times are specified in Local Standard Time (LST). Add 1 hour to adjust for Daylight Saving Time where and when it is observed.

TORONTO INTL A
ONTARIO

43°40'36.000" N
79°37'50.000" W
173.40 m
6158731
71624
YYZ

Download Data

Hourly Data (October 2016)
Hourly Data Report for October 22, 2016
Temp Definition
°C
Dew Point Temp Definition
°C
Rel Hum Definition
%
Wind Dir Definition
10's deg

Wind Spd Definition
km/h
Visibility Definition
km
Stn Press Definition
kPa
Hmdx Definition


Wind Chill Definition


Weather Definition


TIME
00:00 Legend Double Dagger 5.4 -0.2 67 35 32 24.1 99.05     LegendNANA
01:00 Legend Double Dagger 4.8 -0.8 67 36 32 24.1 99.04     Mainly Clear
02:00 Legend Double Dagger 4.2 -0.8 70 35 25 24.1 99.00     LegendNANA
03:00 Legend Double Dagger 4.3 -0.9 69 34 26 24.1 98.95     LegendNANA
04:00 Legend Double Dagger 4.0 -1.4 68 34 31 24.1 98.94     Mainly Clear
05:00 Legend Double Dagger 3.8 -1.6 68 34 31 24.1 98.92     LegendNANA
06:00 Legend Double Dagger 3.8 -1.2 70 35 41 24.1 98.88     LegendNANA
07:00 Legend Double Dagger 3.4 -1.0 73 33 32 24.1 98.84     Mainly Clear
08:00 Legend Double Dagger 4.8 -0.2 70 33 28 24.1 98.85     LegendNANA
09:00 Legend Double Dagger 5.2 0.2 70 34 39 24.1 98.82     LegendNANA
10:00 Legend Double Dagger 6.0 0.6 68 32 37 24.1 98.81     Mostly Cloudy
11:00 Legend Double Dagger 6.2 0.5 67 33 43 24.1 98.84     LegendNANA
12:00 Legend Double Dagger 7.6 0.8 62 35 30 24.1 98.78     LegendNANA
13:00 Legend Double Dagger 8.1 0.1 57 33 43 24.1 98.77     Mostly Cloudy
14:00 Legend Double Dagger 8.3 0.1 56 32 46 24.1 98.76     LegendNANA
15:00 Legend Double Dagger 7.9 -0.6 55 33 39 24.1 98.77     LegendNANA
16:00 Legend Double Dagger 7.6 -0.4 57 30 43 24.1 98.78     Mainly Clear
17:00 Legend Double Dagger 6.8 -0.9 58 31 36 24.1 98.86     LegendNANA
18:00 Legend Double Dagger 6.3 -1.4 58 30 31 24.1 98.91     LegendNANA
19:00 Legend Double Dagger 5.7 -1.2 61 30 40 24.1 98.91     Mainly Clear
20:00 Legend Double Dagger 5.4 -0.4 66 30 40 24.1 98.88     LegendNANA
21:00 Legend Double Dagger 4.9 -0.1 70 29 27 24.1 98.90     LegendNANA
22:00 Legend Double Dagger 4.7 0.3 73 29 24 24.1 98.91     Mainly Clear
23:00 Legend Double Dagger 4.2 0.0 74 28 26 24.1 98.91     LegendNANA

Notes on Data Quality.

Legend

  • E = Estimated
  • M = Missing
  • NA = Not Available
  • ‡ = Partner data that is not subject to review by the National Climate Archives
Date modified: